Flag for Australia Weather past 2 weeks in Adelaide, South Australia, Australia

Now
55 °F

Scattered clouds.


Feels Like: 54 °F
Forecast: 47 / 59 °F
Wind: 7 mph from North

Location: Adelaide Airport

Current Time: Jul 26, 2014 at 1:33:24 PM

Latest Report: Jul 26, 2014 at 12:30 PM


Visibility: N/A

Pressure: 30.33 "Hg

Humidity: 88%

Dew point: 52 °F

Location of AdelaideLocation

Historic Weather in Adelaide — Graph

°F

Adelaide temperature yesterday

Maximum temperature yesterday: 59 °F (at 1:00 PM)
Minimum temperature yesterday: 52 °F (at 11:30 PM)
Average temperature yesterday: 56 °F

Past Weeks' High & Low Weather Summary

 TemperatureHumidityPressure
High64 °F (Jul 22, 1:00 PM)100% (Jul 11, 10:30 PM)30.54 "Hg (Jul 11, 10:30 PM)
Low37 °F (Jul 18, 4:30 AM)37% (Jul 22, 12:00 PM)29.65 "Hg (Jul 24, 4:00 AM)
Average51 °F78%30.16 "Hg
* Reported Jul 11 12:30 PM — Jul 26 12:30 PM, Adelaide, Weather by CustomWeather, © 2014

Note: Actual official high and low records may vary slightly from our data, if they occured in-between our weather recording intervals... More about our weather records

Advertising

Adelaide weather history for previous 24 hours

 ConditionsComfort  
Time TempWeatherWind HumidityBarometerVisibility
12:30 PM
Jul 26
55 °FScattered clouds.7 mph88%30.33 "HgN/A
12:00 PM54 °FPartly sunny.8 mph94%30.33 "HgN/A
11:30 AM54 °FPartly sunny.8 mph94%30.36 "HgN/A
10:30 AM52 °FFog.8 mph100%30.36 "Hg1 mi
10:00 AM52 °FFog.8 mph100%30.36 "Hg0 mi
9:30 AM50 °FFog.8 mph100%30.36 "Hg0 mi
9:00 AM50 °FFog.7 mph100%30.36 "Hg0 mi
8:30 AM50 °FFog.8 mph100%30.33 "Hg0 mi
7:30 AM50 °FFog.7 mph100%30.30 "Hg0 mi
7:00 AM50 °FFog.8 mph100%30.30 "Hg0 mi
6:30 AM50 °FFog.8 mph100%30.30 "Hg0 mi
5:30 AM50 °FFog.7 mph100%30.27 "Hg0 mi
5:00 AM50 °FFog.7 mph100%30.27 "Hg0 mi
4:30 AM50 °FFog.7 mph100%30.27 "Hg0 mi
4:00 AM50 °FPassing clouds.7 mph100%30.24 "Hg2 mi
3:30 AM50 °FPassing clouds.7 mph100%30.24 "Hg1 mi
3:00 AM50 °FPassing clouds.7 mph100%30.24 "Hg1 mi
2:30 AM50 °FFog.6 mph100%30.24 "Hg0 mi
2:00 AM48 °FFog.7 mph100%30.24 "Hg0 mi
1:30 AM48 °FPassing clouds.7 mph100%30.24 "Hg6 mi
1:00 AM50 °FPassing clouds.8 mph100%30.24 "HgN/A
12:00 AM52 °FPassing clouds.5 mph94%30.24 "HgN/A
11:30 PM
Jul 25
52 °FPassing clouds.3 mph94%30.21 "HgN/A
11:00 PM54 °FPassing clouds.7 mph94%30.21 "HgN/A
10:30 PM54 °FPassing clouds.7 mph94%30.21 "HgN/A
10:00 PM54 °FPassing clouds.7 mph94%30.21 "HgN/A
9:30 PM54 °FPassing clouds.7 mph94%30.21 "HgN/A
9:00 PM55 °FPassing clouds.7 mph88%30.18 "HgN/A
8:30 PM55 °FPassing clouds.6 mph88%30.18 "HgN/A
8:00 PM55 °FPassing clouds.6 mph88%30.18 "HgN/A
7:30 PM55 °FPassing clouds.6 mph94%30.18 "HgN/A
7:00 PM55 °FPartly cloudy.2 mph94%30.15 "HgN/A
6:30 PM55 °FPartly cloudy.5 mph94%30.15 "HgN/A
6:00 PM55 °FPartly cloudy.6 mph94%30.12 "HgN/A
5:30 PM57 °FPartly cloudy.6 mph88%30.12 "HgN/A
5:00 PM57 °FScattered showers. Partly cloudy.7 mph88%30.12 "HgN/A
4:30 PM57 °FScattered showers. Broken clouds.7 mph82%30.09 "HgN/A
4:00 PM59 °FPartly sunny.8 mph77%30.09 "HgN/A
3:30 PM59 °FPartly sunny.10 mph77%30.09 "HgN/A
3:00 PM59 °FScattered clouds.10 mph82%30.09 "HgN/A
2:30 PM59 °FPartly sunny.10 mph82%30.07 "HgN/A
2:00 PM59 °FPartly sunny.12 mph82%30.07 "HgN/A
1:30 PM59 °FPartly sunny.10 mph82%30.07 "HgN/A
1:00 PM59 °FScattered clouds.13 mph82%30.07 "HgN/A
Weather by CustomWeather, © 2014

See weather overviewHow to use our weather pages